CW8428 Weather Reports


Display with metric or nautical units.
time (UTC)temp
F
wind
direction
speed
MPH
gust
MPH
rain 1hr
in
rain 24hr
in
rain mn
in
humidity
%
barometer
mb
20260505022628 61 198 3.0 7.0 0.00 0.00 0.00 46 1006.6
20260505021619 62 142 3.0 5.0 0.00 0.00 0.00 43 1006.5
20260505020630 63 138 3.0 7.0 0.00 0.00 0.00 42 1006.5
20260505015632 64 138 3.0 7.0 0.00 0.00 0.00 41 1006.5
20260505014618 65 162 6.0 10.0 0.00 0.00 0.00 38 1006.4
20260505013625 66 123 4.0 8.0 0.00 0.00 0.00 32 1006.4
20260505012616 66 123 6.0 10.0 0.00 0.00 0.00 34 1006.6
20260505011624 66 118 6.0 10.0 0.00 0.00 0.00 34 1006.7
20260505010614 65 142 8.0 14.0 0.00 0.00 0.00 35 1006.8
20260505005617 64 141 7.0 13.0 0.00 0.00 0.00 37 1006.8
20260505004625 63 134 7.0 10.0 0.00 0.00 0.00 42 1007.0
20260505003614 63 123 4.0 9.0 0.00 0.00 0.00 44 1007.0
20260505002622 63 150 7.0 10.0 0.00 0.00 0.00 44 1007.1
20260505001616 63 134 4.0 7.0 0.00 0.00 0.00 44 1007.3
20260505000624 63 152 4.0 8.0 0.00 0.00 0.00 44 1007.5
20260504235643 63 153 5.0 13.0 0.00 0.00 0.00 44 1007.7
20260504234631 63 142 10.0 13.0 0.00 0.00 0.00 42 1007.6
20260504233619 63 102 9.0 19.0 0.00 0.00 0.00 41 1007.6
20260504232650 64 132 9.0 16.0 0.00 0.00 0.00 38 1007.6
20260504231616 65 123 11.0 19.0 0.00 0.00 0.00 36 1007.4
20260504230622 65 159 14.0 19.0 0.00 0.00 0.00 37 1007.5
20260504225622 64 138 10.0 16.0 0.00 0.00 0.00 39 1007.4
20260504224617 65 142 9.0 13.0 0.00 0.00 0.00 36 1007.3
20260504223628 65 134 7.0 12.0 0.00 0.00 0.00 34 1007.1
20260504222618 65 157 9.0 19.0 0.00 0.00 0.00 35 1007.1
20260504221627 66 175 14.0 19.0 0.00 0.00 0.00 34 1007.3
20260504220641 66 32 2.0 16.0 0.00 0.00 0.00 31 1007.1
20260504215624 66 349 13.0 23.0 0.00 0.00 0.00 32 1007.1
20260504214614 67 355 12.0 18.0 0.00 0.00 0.00 30 1007.4
20260504213624 68 319 11.0 18.0 0.00 0.00 0.00 29 1007.6
20260504212619 69 33 4.0 13.0 0.00 0.00 0.00 24 1007.4
20260504211630 69 348 13.0 19.0 0.00 0.00 0.00 24 1007.5
20260504210638 69 18 8.0 14.0 0.00 0.00 0.00 25 1007.5
20260504205615 69 5 8.0 13.0 0.00 0.00 0.00 27 1007.6
20260504204626 68 5 7.0 13.0 0.00 0.00 0.00 28 1007.7
20260504203614 67 42 3.0 21.0 0.00 0.00 0.00 34 1007.9
20260504202622 68 96 13.0 20.0 0.00 0.00 0.00 30 1007.8
20260504201630 68 295 4.0 9.0 0.00 0.00 0.00 29 1008.0
20260504200624 68 143 3.0 10.0 0.00 0.00 0.00 27 1008.1
20260504195626 69 159 10.0 12.0 0.00 0.00 0.00 29 1007.9
20260504194615 69 162 9.0 14.0 0.00 0.00 0.00 30 1007.9
20260504193644 70 157 5.0 16.0 0.00 0.00 0.00 28 1008.0
20260504192618 72 244 4.0 8.0 0.00 0.00 0.00 23 1007.9
20260504191628 71 143 5.0 9.0 0.00 0.00 0.00 24 1008.0
20260504190619 71 54 2.0 8.0 0.00 0.00 0.00 25 1008.3
20260504185619 71 344 4.0 8.0 0.00 0.00 0.00 24 1008.3
20260504184652 70 269 1.0 9.0 0.00 0.00 0.00 27 1008.4
20260504183622 70 270 3.0 9.0 0.00 0.00 0.00 28 1008.5
20260504182613 70 206 6.0 12.0 0.00 0.00 0.00 28 1008.7
20260504181623 70 194 4.0 8.0 0.00 0.00 0.00 30 1008.8
20260504180624 69 234 2.0 10.0 0.00 0.00 0.00 32 1009.0
20260504175626 69 274 5.0 8.0 0.00 0.00 0.00 36 1009.2
20260504174614 68 253 3.0 7.0 0.00 0.00 0.00 33 1009.3
20260504173642 67 263 3.0 7.0 0.00 0.00 0.00 34 1009.4
20260504172614 65 231 3.0 7.0 0.00 0.00 0.00 35 1009.6
20260504171641 64 263 1.0 5.0 0.00 0.00 0.00 36 1009.7
20260504170628 63 309 3.0 5.0 0.00 0.00 0.00 35 1009.8
20260504150625 51 224 0.0 0.0 0.00 0.00 0.00 49 1011.0
20260504140651 43 218 1.0 2.0 0.00 0.00 0.00 68 1011.6
20260504130626 40 114 0.0 2.0 0.00 0.00 0.00 69 1011.7
20260504110627 43 279 1.0 4.0 0.00 0.00 0.00 64 1011.2
20260504081615 44 275 2.0 3.0 0.00 0.00 0.00 59 1011.1
20260504080624 44 275 0.0 2.0 0.00 0.00 0.00 60 1011.1
20260504050613 55 126 0.0 2.0 0.00 0.00 0.00 40 1011.0
20260504045634 55 126 0.0 2.0 0.00 0.00 0.00 39 1011.1
20260504044620 56 126 2.0 2.0 0.00 0.00 0.00 39 1011.1
20260504043649 56 126 1.0 4.0 0.00 0.00 0.00 38 1011.1
20260504042621 57 128 1.0 3.0 0.00 0.00 0.00 37 1011.0
20260504041630 57 128 2.0 4.0 0.00 0.00 0.00 37 1011.0
20260504040618 57 131 0.0 2.0 0.00 0.00 0.00 37 1010.9
20260504035616 58 132 2.0 4.0 0.00 0.00 0.00 37 1010.9
20260504034628 59 130 1.0 3.0 0.00 0.00 0.00 36 1010.9
20260504033616 60 133 1.0 3.0 0.00 0.00 0.00 35 1010.8
20260504032618 60 133 1.0 2.0 0.00 0.00 0.00 35 1010.8
20260504031621 61 133 1.0 3.0 0.00 0.00 0.00 33 1010.7
20260504030628 62 132 1.0 3.0 0.00 0.00 0.00 33 1010.6
20260504025624 62 132 2.0 4.0 0.00 0.00 0.00 31 1010.5
20260504024622 63 132 3.0 4.0 0.00 0.00 0.00 31 1010.5
20260504023631 64 216 1.0 4.0 0.00 0.00 0.00 30 1010.4